Zurück zum Katalog

COSMOS 1818 COOLANT

AktivLEO
NORAD 36936·DEBRIS·🇷🇺 Russia

Gestartet Feb 1, 1987 von Baikonur Cosmodrome

Loading…

Nächste Überflüge (nächste 24 Stunden)

TLE

VeraltetSource: Space-Track

Epoche: Aug 22, 2026, 23:40 UTC

1 36936U 87011Q   26234.98666196  .00000643  00000-0  23383-3 0  9997
2 36936  65.0010 332.6879 0019967 281.4838  78.4008 14.40389015293618

Verfolge COSMOS 1818 COOLANT in Echtzeit mit AllMySat

Download on the App Store